RH
100 100 100 100 100 100 100 100 100 100 100 100 89 88 84 77 69 75 71 62 64 70 76 77 78 79 78 73 68 63 66 70 68 68 75 72 67 68 73 76 78 80 77
100 100 100 100 100 100 100 94 86 82 83 89 87 86 82 90 96 94 100 100 91 78 75 79 77 76 79 77 74 70 66 63 63 83 93 88 81 74 73 74 74 74 80
100 100 100 100 100 100 100 100 100 100 97 94 90 89 94 98 97 98 99 100 99 100 99 98 98 96 89 87 82 83 83 79 73 72 82 90 93 87 87 94 90 86 83
100 100 100 100 100 100 100 100 100 96 91 89 86 92 98 97 91 90 92 88 86 84 89 94 94 93 89 90 91 90 86 90 97 95 94 94 95 95 96 99 99 100 98
93 99 100 100 100 100 100 100 100 100 100 100 99 96 94 92 93 96 95 91 85 82 81 89 95 96 94 93 90 91 92 89 85 86 99 95 86 87 88 92 99 99 97
81 87 97 100 100 100 100 100 100 100 100 100 100 100 100 100 100 100 100 100 100 100 100 100 100 100 100 99 97 95 94 87 79 80 81 84 84 84 78 77 83 86 90
83 88 95 100 100 100 100 100 99 99 99 99 98 98 98 95 98 98 95 92 90 90 88 84 82 82 85 84 78 78 88 93 92 81 76 73 72 74 76 75 73 75 74
77 83 86 88 89 87 85 83 83 86 86 88 89 89 90 92 91 88 85 82 80 79 76 72 64 59 60 70 85 91 91 89 87 84 81 78 77 75 75 73 75 72 73
59 59 62 63 66 73 80 85 85 82 79 78 72 63 58 58 62 61 54 50 50 49 50 55 68 74 71 62 49 43 42 43 47 55 68 80 84 85 84 85 82 80 79
55 55 56 57 57 57 56 53 50 47 46 48 51 51 46 42 40 40 38 36 34 35 39 38 34 29 27 26 27 28 28 30 34 43 55 64 65 58 52 49 50 46 46
48 48 47 47 48 47 45 44 45 45 46 46 44 42 41 40 37 34 31 31 31 30 30 28 26 25 25 25 25 25 26 26 26 27 27 27 26 26 26 25 25 25 25
42 43 42 43 43 44 45 44 44 42 42 42 42 41 38 36 32 29 28 29 29 28 27 26 25 25 24 24 24 24 24 24 24 23 23 23 23 23 24 24 24 24 23
43 42 42 42 42 42 40 38 38 40 39 38 38 38 35 33 30 29 29 30 30 30 30 29 30 29 29 28 28 27 27 27 26 26 26 25 24 23 22 22 21 21 20
36 37 38 38 38 38 39 38 37 37 38 37 36 34 32 30 29 28 28 28 28 29 29 30 30 30 31 31 30 29 29 29 28 28 28 27 26 26 25 24 23 23 22
35 35 35 34 34 33 33 32 33 32 32 31 31 30 30 30 30 30 30 30 31 31 32 32 30 30 29 29 29 29 29 29 29 29 28 27 27 26 25 25 25 24 23
38 37 36 35 34 34 33 34 35 36 38 38 38 38 38 36 36 35 34 34 34 35 38 36 36 36 37 36 35 35 36 36 35 35 33 31 29 26 25 23 20 18 17
46 46 45 44 44 44 44 44 45 45 45 44 44 44 45 43 42 40 39 36 33 34 36 37 37 34 30 27 26 25 25 24 24 24 23 22 22 20 18 18 16 15 14
51 53 53 52 51 52 53 52 52 52 52 49 47 45 43 41 38 34 32 32 31 30 30 29 32 34 35 34 32 31 29 26 23 22 20 20 19 19 18 17 16 16 15
49 52 55 57 57 55 53 51 49 44 41 40 39 38 37 37 38 38 40 42 42 41 40 38 35 33 32 30 29 28 27 26 24 23 23 22 22 22 20 18 16 14 13
44 44 43 43 43 43 43 43 43 43 44 45 47 47 50 52 50 47 44 41 40 37 35 36 35 34 32 31 32 33 34 34 31 27 25 24 20 18 17 16 15 16 18
52 53 53 51 53 57 60 61 64 65 62 58 55 52 48 50 50 49 49 48 48 47 45 43 44 43 41 39 37 34 31 28 25 24 25 25 21 18 18 20 20 19 16
68 67 66 65 65 65 67 66 63 62 61 61 61 62 62 64 60 56 54 51 48 45 44 43 41 38 36 34 33 32 32 28 24 23 24 23 22 21 20 18 16 15 14
75 74 74 72 72 75 75 72 69 68 67 64 60 56 53 52 52 51 47 45 45 43 40 38 36 34 32 29 28 28 29 29 28 28 25 23 23 20 16 13 11 10 9
73 70 69 70 67 62 59 58 56 52 52 55 58 60 59 55 52 51 50 48 45 43 42 42 42 41 37 35 34 33 31 28 24 20 15 13 12 11 10 9 8 7 7
58 61 64 63 63 66 66 66 63 59 59 59 60 63 63 61 61 57 52 46 42 38 34 30 27 25 23 21 19 17 16 15 13 12 11 11 12 10 8 7 7 7 6
64 68 67 64 64 67 73 73 73 72 70 68 64 59 53 48 43 37 33 31 29 28 27 25 23 22 21 19 16 15 14 13 12 10 10 10 10 8 6 6 6 6 6
Wind_Speed
107 107 108 107 108 108 107 107 107 106 105 104 103 101 102 100 99 99 99 96 96 96 96 95 94 95 95 95 95 94 93 94 96 96 95 94 93 93 92 91 90 91 92
111 110 110 111 111 111 111 111 110 109 108 109 108 107 107 105 105 105 104 105 105 102 102 102 102 101 102 102 102 102 101 102 100 99 99 100 100 99 99 98 98 97 97
116 115 115 115 115 114 114 114 114 115 114 113 113 112 112 112 112 112 110 109 110 111 110 110 110 109 108 108 109 109 108 108 107 107 106 106 105 105 105 105 105 105 104
119 119 119 119 119 120 120 120 120 119 118 118 118 118 117 117 117 116 116 116 115 114 114 114 114 114 114 114 115 115 115 115 114 115 113 111 111 111 110 111 111 112 112
122 121 121 122 122 123 123 123 122 121 121 121 121 121 122 122 122 121 120 120 119 119 119 119 120 121 120 120 120 121 121 120 119 118 119 119 117 117 117 117 118 118 119
124 124 124 125 124 123 123 123 123 124 124 124 124 123 124 124 125 124 124 125 125 125 125 125 126 126 126 127 126 124 123 123 123 122 122 123 123 123 124 123 123 125 125
116 118 120 121 122 123 123 123 123 124 125 125 126 126 126 126 126 127 126 126 125 125 124 124 126 126 124 122 120 120 120 121 122 123 124 124 125 124 125 126 125 126 127
107 110 112 114 116 117 118 118 118 119 119 119 118 119 120 122 123 122 120 118 117 116 115 113 111 111 110 109 108 109 110 112 114 115 117 119 120 121 122 123 124 125 125
94 96 98 101 101 102 103 103 104 105 106 107 106 105 104 104 102 101 101 101 101 100 100 100 100 100 102 103 104 106 108 109 109 110 111 112 113 114 114 115 117 116 118
85 87 88 89 90 91 92 92 93 93 93 94 94 94 93 93 93 93 93 94 94 92 93 94 95 96 97 98 100 101 103 104 104 105 107 108 109 110 111 111 112 112 112
81 82 83 85 86 87 87 87 86 85 85 85 86 87 88 89 90 89 89 89 90 90 90 91 93 94 95 96 97 98 99 101 101 103 105 107 108 108 109 110 110 111 112
76 77 77 78 79 80 80 80 80 82 82 84 85 86 87 87 87 87 87 87 87 87 88 89 90 91 92 93 94 95 97 98 99 100 101 103 105 106 108 109 111 111 112
74 75 75 76 77 78 79 79 78 80 81 83 84 84 85 86 86 86 87 88 89 89 90 91 91 92 93 93 94 96 98 100 100 101 103 104 105 106 107 109 110 111 112
73 73 73 73 74 75 76 77 77 78 80 81 82 83 84 85 86 86 87 88 89 90 91 93 94 95 96 97 98 99 99 101 102 103 105 106 107 109 110 111 112 113 114
68 69 71 71 73 73 74 74 75 76 77 79 80 81 82 83 83 84 85 86 87 88 90 92 92 93 94 95 96 97 99 100 102 103 104 106 107 107 107 108 108 109 110
65 66 68 69 70 70 71 72 73 74 75 76 77 78 79 79 79 79 80 80 81 82 84 85 85 86 88 89 90 92 94 96 98 100 101 103 105 107 108 109 109 109 109
61 62 64 65 65 66 66 67 67 68 69 69 70 72 73 75 76 78 80 82 84 85 87 88 90 92 94 94 94 95 95 96 97 97 98 97 96 96 96 96 97 96 96
60 60 61 63 64 65 66 67 69 71 73 75 77 79 81 82 84 85 86 85 86 85 86 86 87 87 87 87 87 87 87 88 87 87 87 87 88 88 90 91 91 92 93
64 65 65 67 69 71 73 75 77 78 79 79 79 79 78 78 78 78 78 78 79 79 79 80 79 79 80 80 81 81 82 83 84 84 85 86 87 88 89 89 90 90 90
62 63 64 65 66 67 67 67 68 68 69 69 70 70 70 71 72 72 72 72 73 74 74 75 76 77 78 78 79 80 82 84 84 85 85 86 87 87 87 88 89 89 89
52 53 55 56 57 58 59 60 61 62 63 64 64 64 65 66 68 70 71 72 73 74 75 75 76 77 78 79 80 81 83 83 84 84 85 86 87 87 87 87 88 89 87
47 49 50 51 52 53 53 55 57 58 60 61 63 64 65 67 70 71 72 73 74 74 76 77 78 79 79 79 80 81 82 84 84 84 85 86 86 86 84 84 84 82 81
45 46 48 49 51 52 55 57 58 59 61 62 64 65 67 68 69 70 70 70 71 72 73 75 76 78 79 79 80 81 82 83 83 82 81 80 80 80 80 80 79 77 75
48 49 49 51 54 55 56 57 59 60 61 62 63 64 65 66 67 69 70 72 74 75 76 76 78 79 79 78 78 78 77 77 78 78 76 75 74 74 73 72 71 69 68
47 47 49 51 51 52 53 54 56 58 60 61 63 65 67 67 69 70 71 72 72 73 73 74 74 74 74 73 73 72 71 71 70 70 68 66 66 68 68 65 64 65 66
45 46 49 51 52 53 55 57 58 60 61 62 64 65 66 67 68 69 69 69 69 70 70 70 70 70 69 69 68 66 66 65 64 63 62 63 64 66 65 62 60 62 61
Wind_Direction
248 249 250 251 252 252 252 253 253 253 254 255 257 258 261 263 264 265 266 267 267 267 266 265 266 266 266 266 266 266 266 267 267 267 268 268 267 267 267 267 266 267 267
247 248 250 251 252 253 253 254 255 257 257 259 259 260 262 263 263 264 264 264 266 266 266 265 266 266 266 267 266 266 267 267 266 266 267 267 267 267 268 268 267 267 266
247 248 249 251 252 253 254 255 256 256 257 259 260 261 262 262 263 264 265 265 265 266 266 266 266 266 266 266 267 267 267 266 265 265 265 265 264 265 266 267 267 267 267
246 247 249 250 251 252 254 255 257 259 260 261 261 262 262 262 263 264 265 265 265 266 266 266 266 265 265 266 266 266 266 265 264 263 263 263 264 264 265 265 265 266 266
246 247 248 249 250 252 254 256 258 259 259 260 261 261 262 263 264 265 265 265 266 267 268 268 268 268 268 268 268 267 266 264 264 263 263 263 264 265 265 265 265 264 264
244 246 247 248 250 252 253 255 256 257 258 259 260 261 262 263 264 265 265 265 266 266 267 268 268 269 269 269 269 268 267 266 265 263 263 263 264 264 265 265 265 264 264
244 246 247 249 250 252 253 254 255 257 258 258 259 260 261 262 263 264 265 265 266 266 266 266 267 267 267 267 267 267 266 266 265 265 264 264 265 265 266 266 267 266 265
245 247 249 250 252 253 254 255 256 257 257 258 259 260 261 263 264 265 265 265 265 265 266 266 266 266 266 266 266 266 266 266 266 266 266 265 265 265 265 265 266 266 266
245 247 248 250 251 252 254 255 255 256 257 258 259 260 261 262 263 263 263 264 264 265 265 265 265 265 265 265 266 266 266 267 267 267 267 267 267 267 267 267 268 268 268
243 245 246 248 249 251 252 253 255 256 257 258 259 260 261 262 263 263 264 264 264 265 264 264 265 266 266 266 266 266 267 267 267 266 267 267 267 267 268 268 268 268 268
245 246 247 248 250 252 253 255 256 258 259 260 260 260 261 261 261 263 264 263 263 264 264 265 265 265 266 266 267 267 267 267 267 267 267 268 268 269 269 269 269 269 269
247 248 249 250 252 253 255 256 256 257 258 259 260 260 261 263 264 265 266 266 267 267 267 267 267 267 267 267 267 268 268 268 268 268 268 268 268 268 268 269 269 269 270
247 249 250 251 252 253 254 256 258 258 259 260 261 263 263 264 265 266 267 268 268 268 269 269 269 269 269 269 269 269 269 269 270 270 270 270 270 270 270 270 271 271 271
248 250 252 253 255 256 256 257 258 259 260 261 261 262 263 264 265 266 266 267 268 268 268 268 269 269 270 270 270 270 271 271 271 271 271 271 272 272 272 273 273 272 272
250 251 253 254 255 256 257 258 259 260 261 262 263 263 264 265 265 266 267 267 268 268 268 268 269 269 269 269 269 270 270 270 270 270 271 271 272 272 272 273 273 273 273
251 252 253 254 255 256 258 258 259 260 261 262 262 263 263 264 265 266 266 267 268 268 268 269 269 270 270 270 271 270 270 271 270 271 271 271 272 273 273 273 273 274 274
252 253 255 256 257 258 258 259 260 261 262 263 264 264 264 265 266 267 268 269 270 270 270 270 271 271 272 272 272 271 272 271 272 272 272 273 273 273 273 273 273 274 274
252 254 255 256 257 258 259 260 261 263 264 265 265 266 266 268 268 269 269 270 270 270 271 271 271 272 272 273 273 273 273 274 274 274 274 274 274 274 275 275 275 275 275
253 255 256 258 258 260 261 262 263 263 264 264 265 266 267 268 268 268 269 269 270 270 271 271 271 272 272 272 273 273 273 274 275 275 276 276 276 277 277 276 277 277 277
253 254 256 257 257 258 259 260 261 262 263 264 265 266 267 268 269 269 270 270 271 271 272 272 273 273 274 274 275 276 276 277 277 278 278 278 278 278 278 279 279 280 280
254 254 255 257 258 259 260 261 262 263 264 265 266 268 268 269 270 271 272 272 273 273 274 274 274 274 275 276 276 277 277 278 278 279 280 280 279 280 280 281 281 281 280
254 255 257 258 259 260 261 262 263 264 266 267 268 269 270 271 272 273 273 273 274 274 274 275 276 276 277 277 277 278 278 279 279 280 280 280 281 282 282 281 281 281 281
257 258 259 261 261 262 263 264 266 268 269 270 271 272 273 274 275 276 276 277 277 277 277 277 278 278 278 278 279 279 280 280 281 281 281 282 282 282 282 282 282 283 283
260 262 263 264 266 266 267 269 270 271 272 273 274 275 276 277 277 277 278 278 278 279 279 279 279 279 279 280 280 281 281 282 282 282 282 282 283 282 281 281 282 282 281
265 267 267 267 268 270 271 272 272 273 274 275 276 276 277 278 278 278 278 278 279 279 280 280 280 280 281 281 281 282 282 282 282 282 282 282 282 281 282 282 282 282 282
267 268 269 270 271 272 273 274 274 276 277 277 277 278 278 279 279 280 280 281 281 281 282 281 282 282 283 283 283 284 284 284 283 283 283 284 283 283 283 283 283 283 282